sat.trackr.live / text

‹ back to catalog

STARLINK-36704

NORAD 67697 · 2026-025E

PAYLOAD ACTIVE UNKNOWN

§ Identity

Operator
Country
US
Launch date
2026-02-07
Launch site
AFWTR
Launch vehicle
Mass (kg)
RCS (m²)

Purposes: comms

External: N2YO · Heavens-Above · Gunter

§ Orbital elements

Epoch: 2026-05-25T01:00:13.923648Z

Period
93.91 min
Inclination
97.2852°
Eccentricity
0.0000060
Mean motion
15.33454741 rev/d
Perigee alt
465.5 km
Apogee alt
465.6 km
Semi-major
6,843.7 km
B*
6.8457e-4
RAAN
256.6539°
Arg perigee
141.7647°
Mean anomaly
218.3600°
Rev number
1,771

§ Raw data

STARLINK-367041 67697U 26025E   26145.04182782  .00022097  00000+0  68457-3 0  99922 67697  97.2852 256.6539 0000060 141.7647 218.3600 15.33454741 17715

JSON: /api/v1/satellites/67697 · /tle

For live sub-satellite position, see the globe view (requires WebGL).

§ Visibility from observer

Set your observer location to see the next 7 days of passes ≥ 10°. The values pass through the URL so the page stays shareable.

No JS? Fill the form by hand. The geolocation button needs JavaScript.